Regional Weather Roundup
Issued by NWS Wakefield, VA

Home | Current Version | Previous Version | Graphics & Text | Print | Product List | Glossary On
Versions: 1 2 3 4 5 6 7 8 9 10 11 12 13 14 15 16 17 18 19 20 21 22 23 24 25 26 27 28 29 30 31 32 33 34 35 36 37 38 39 40 41 42 43 44 45 46 47 48 49 50
688
ASUS41 KAKQ 300615
RWRAKQ

REGIONAL WEATHER ROUNDUP
NATIONAL WEATHER SERVICE WAKEFIELD VA
200 AM EDT THU MAR 30 2017

Note: "fair" indicates few or no clouds below 12,000 feet with no
significant weather and/or obstructions to visibility. * = Denotes
station may not report precipitation (e.g., rain,snow,etc.),
thunder or fog.

VAZ042-051-052>054-056-300700-
NORTHERN VIRGINIA

CITY           SKY/WX    TMP DP  RH WIND       PRES   REMARKS
WASH NATIONAL  PTCLDY    51  32  48 NE8       30.21R
DULLES         CLEAR     47  32  56 NE3       30.20R
FORT BELVOIR   CLEAR     50  29  45 CALM      30.20R
QUANTICO       CLEAR     52  36  54 E8        30.21R
FREDERICKSBRG* CLEAR     49  38  65 NE7       30.18F
STAFFORD*      CLEAR     45  35  68 CALM      30.23S
WARRENTON      CLEAR     40  35  80 CALM      30.19S
CULPEPER*      MOCLDY    44  40  85 N3        30.20F
MANASSAS*      NOT AVBL
LEESBURG*      CLEAR     50  34  53 NE3       30.21S
WINCHESTER     CLEAR     37  34  87 CALM      30.20R
FRONT ROYAL*   CLEAR     46  32  57 E3        30.18S
LURAY*         CLOUDY    46  41  81 N6        30.17S
$$

VAZ048-049-060>072-079>083-300700-
CENTRAL AND SOUTH CENTRAL VIRGINIA

CITY           SKY/WX    TMP DP  RH WIND       PRES   REMARKS
RICHMOND       PTCLDY    46  42  86 CALM      30.17S
CHESTERFIELD*  MOCLDY   N/A N/A N/A CALM      30.19S
PETERSBURG*    PTCLDY    40  39  97 CALM      30.18S
HANOVER        PTCLDY    45  36  70 CALM      30.19S
TAPPAHANNOCK*  CLEAR     50  31  48 NE5       30.18F
QUINTON*       FAIR      44  44  99 NW5       30.18S
CHARLOTTSVILLE MOCLDY    53  36  52 NE6       30.18R
GORDONSVILLE*  MOCLDY    46  40  81 CALM      30.18S
ORANGE*        PTCLDY    45  37  76 CALM      30.21R
LOUISA*        PTCLDY    52  39  62 E5        30.17S
BUMPASS*       FAIR      45  37  76 W6        30.18S
FARMVILLE*     CLOUDY    56  44  64 E3        30.16R
CREWE*         CLOUDY    52  43  73 CALM      30.16S
FORT PICKETT*  CLOUDY    50  40  67 CALM      30.17R
CHASE CITY*    CLOUDY    54  51  90 CALM      30.16R
CLARKSVILLE*   CLOUDY    55  52  88 E6        30.14R
SOUTH HILL*    CLEAR     48  47  94 CALM      30.21S
LAWRENCEVILLE* FAIR      49  46  89 CALM      30.16R
EMPORIA*       PTCLDY    45  45 100 E6        30.17F
$$

VAZ088>098-300700-
SOUTHEAST VIRGINIA

CITY           SKY/WX    TMP DP  RH WIND       PRES   REMARKS
NORFOLK        CLEAR     47  44  90 CALM      30.16F
VIRGINIA BEACH CLEAR     41  38  89 CALM      30.16S FOG
NORFOLK NAVAL  PTCLDY    45  42  89 VRB3      30.18S
WEST POINT*    PTCLDY    41  40  95 CALM      30.20S
SALUDA*        FAIR      42  42 100 CALM      30.18S
NEWPORT NEWS   CLEAR     42  41  96 CALM      30.18R
LANGLEY AFB    CLEAR     45  44  98 CALM      30.17S
FORT EUSTIS    CLEAR     45  42  87 CALM      30.15S
WILLIAMSBURG*  CLEAR     46  46 100 CALM      30.19R
HR EXEC AP*    FAIR      37  34  87 CALM      30.17R
FRANKLIN*      PTCLDY    43  42  95 CALM      30.18R
US460-WAKEFLD  CLEAR     42  41  96 CALM      30.18R
$$

VAZ020-022-025-037-045-300700-
WEST CENTRAL AND SOUTHWEST VIRGINIA

CITY           SKY/WX    TMP DP  RH WIND       PRES   REMARKS
STAUNTON*      CLOUDY    50  40  70 CALM      30.17S
WAYNESBORO*    CLOUDY    54  36  50 E9G21     30.15S
HOT SPRINGS VA CLOUDY    48  34  57 E10       30.13F
LYNCHBURG      CLOUDY    58  40  51 NE7       30.16S
DANVILLE       CLOUDY    57  52  83 E6        30.12R
SOUTH BOSTON*  CLOUDY    58  51  77 E5        30.14R
MARTINSVILLE   CLOUDY    58  49  73 NE3       30.14R
ROANOKE        CLOUDY    60  41  49 SE14      30.15S
BLACKSBURG     CLOUDY    57  47  68 E10       30.15F
DUBLIN*        CLOUDY    58  49  74 E7        30.13R
MARION*        CLEAR     56  49  76 NE9       30.11S
HILLSVILLE*    PTCLDY    56  50  82 CALM      30.11R
RICHLANDS*     FAIR      59  47  65 SE6       30.05S
WISE*          CLEAR     59  45  58 S8        30.04F
ABINGDON*      CLEAR     57  47  71 E6        30.04F
$$

MDZ021>025-VAZ099-100-300700-
SOUTHERN MARYLAND AND THE DELMARVA PENINSULA

CITY           SKY/WX    TMP DP  RH WIND       PRES   REMARKS
PATUXENT RIVER CLEAR     47  37  68 NE8       30.20R
BAY BRIDGE APT CLEAR     46  30  53 E5        30.19F
LEONARDTOWN    CLEAR     43  34  70 CALM      30.21R
DOVER          CLEAR     44  34  67 NE10      30.18S
GEORGETOWN     PTCLDY    46  32  58 E7        30.19R
EASTON         CLEAR     45  29  52 E8        30.22S
CAMBRIDGE      CLEAR     48  28  46 NE3       30.19S
SALISBURY      CLEAR     42  33  70 E6        30.18S
OCEAN CITY     CLEAR     46  34  62 NE9       30.18F
WALLOPS ISLAND CLEAR     47  38  71 NE12      30.18F
ACCOMACK*      CLEAR     38  38  98 NE6       30.18R
$$

NCZ012>017-030>032-300700-
NORTH CENTRAL AND EASTERN NORTH CAROLINA

CITY           SKY/WX    TMP DP  RH WIND       PRES   REMARKS
ROANOKE RAPIDS FAIR      48  46  93 CALM      30.16S
RALEIGH        MOCLDY    58  52  80 SE10G17   30.13R
ELIZABETH CITY CLEAR     47  45  93 E5        30.16F
AHOSKIE*       FOG       45  44  98 CALM      30.17S VSB 1/2
EDENTON*       CLEAR     46  44  92 CALM      30.17S
CURRITUCK*     CLEAR     45  45 100 CALM      30.17F
KILL DEVIL HLS NOT AVBL
MANTEO         CLEAR     48  46  90 E5        30.15F
CAPE HATTERAS  CLEAR     53  46  77 NE9       30.14F
TARBORO*       NOT AVBL
GOLDSBORO      CLEAR     51  51 100 E5        30.13S
WASHINGTON     CLEAR     47  45  95 CALM      30.16S
GREENVILLE     CLEAR     50  46  87 E3        30.16F
NEW BERN       CLEAR     52  49  89 E7        30.15F
WILMINGTON     CLEAR     59  55  87 E8        30.12S
$$

VAZ048-300700-
ELSEWHERE

CITY           SKY/WX    TMP DP  RH WIND       PRES   REMARKS
HARRISBURG PA  MOCLDY    43  26  51 NE5       30.19F
BALTIMORE      CLEAR     47  28  47 NE9       30.19F
ANNAPOLIS      CLEAR     50  30  46 NE7       30.19R
ANDREWS AFB    CLEAR     47  29  51 NE6       30.18S
PHILADELPHIA   PTCLDY    43  25  49 N14       30.21F
HENDERSON NC   MOCLDY    54  47  79 E3        30.14R
GREENSBORO     PTCLDY    60  53  77 SE7       30.09R
ROCKY MOUNT    CLEAR     52  50  93 CALM      30.15S
$$

VAZ100-300700-
MARINE

STATION/POSITION TIME  TEMP    WIND        PRES    WAVE   SWELL
                       AIR SEA DIR/SP/G            HT/PER HT/PER
                 (UTC) (F)     (DEG/KT/KT) (MB)    (FT/S) (FT/S)
CAPE MAY NJ      0548   45 47   60/  4/  5 1022.0F
LEWES DE         0548   47 49   50/ 13/ 15 1022.4R
OCEAN-CITY-INLET 0548   47 45   40/  5/  9 1022.7S
WACHAPREAGUE VA  0548   44 56  320/  2/  5 1021.3F
THOMAS POINT MD  0600   49 47   50/  9/ 10   N/A
GOOSES REEF MD   0600   50 47  110/  8/ 10 1022.9    1
COVE POINT MD    0548   50      80/  6/  7 1022.9R
SOLOMONS ISLAND  0548   51 49   70/  4/  6   N/A
BISHOPS HEAD MD  0548   51 55   60/ 10/ 13 1022.3R
PINEY POINT MD   0548           80/  4/  5   N/A
POTOMAC MD       0600   50 50  110/  6/ 10 1021.5
CAMBRIDGE MD     0548   49 51   50/ 10/ 12 1021.3F
LEWISETTA VA     0548   52 54   90/  7/  9 1021.9R
RAPPAHANNOCK LGT 0548          240/  2/  2 1022.5R
STINGRAY PT      0600   48 50  210/  2/  4 1021.8    0
YORK RVR RNG VA  0548   49     180/  1/  1 1021.3R
YORKTOWN VA      0548   47 52   CALM  /  2 1021.7R
JAMESTOWN VA     0600   49 57   90/  4/  4   N/A     0
DOMINION TERM VA 0548   50     130/  3/  4 1021.7S
KIPTOPEKE VA     0548      52   40/  2/  3   N/A
CAPE HENRY VA    0548   47     150/  2/  2   N/A
WILLOUBY STN VA  0548   48     190/  1/  2 1022.5R
S CRANEY ISL VA  0548   49     140/  1/  3 1021.4S
CAPE HENRY BUOY  0542      51                N/A     3/ 7   2/11
CAPE CHARLES BUO 0551      51                N/A     3/10   2/11
OFFSHORE WE BUOY 0551      49                N/A     4/ 7   2/11
64NM E OF VA BCH 0550   51 51   60/  4/  6 1020.8F   5/ 8   5/ 8
DUCK PIER NC     0548   49 50   60/  6/  6 1020.4F
44100 DUCK FRF   0535      51                N/A     4/ 7   2/11
44056 DUCK FRF   0530      51                N/A     4/10   2/11
OREGON INLET NC  0542   49 57   50/  3/  4 1021.0F
HATTERAS NC      0548   54 61   60/  9/ 13 1020.1F
DIAMOND SHLS NC  0550   61 73   50/ 16/ 21 1020.1F   7/ 9   5/ 9
CAPE LOOKOUT NC  0600   62      70/ 18/ 20 1019.6F
$$




USA.gov is the U.S. government's official web portal to all federal, state and local government web resources and services.